Weather History for KDYR - February, 2015

Change the Weather History Date:

Saturday, February 14, 2015

  Actual Average (WUND) Record (WUND)
Temperature  
Mean Temperature 38 °F -  
Max Temperature 55 °F - - (-1)
Min Temperature 21 °F - - (-1)
Degree Days  
Heating Degree Days 27    
Moisture  
Dew Point 14 °F    
Average Humidity 39    
Maximum Humidity 51    
Minimum Humidity 29    
Precipitation  
Precipitation 0.00 in - - ()
Sea Level Pressure  
Sea Level Pressure 30.19 in    
Wind  
Wind Speed 8 mph (NW)    
Max Wind Speed 24 mph    
Max Gust Speed 33 mph    
Visibility 10 miles    
Events      
Averages and records for this station are not official NWS values.
T = Trace of Precipitation, MM = Missing Value Source: NWS Daily Summary

Daily Weather History Graph

Daily Weather History Graph

Search for Another Location

Airport or City:

Trip Planner

Search our weather history database for the weather conditions in past years. The results will help you decide how hot, cold, wet, or windy it might be!

Date:

Astronomy

Feb. 14, 2015 Rise Set
Actual Time 6:46 AM CST 5:37 PM CST
Civil Twilight 6:19 AM CST 6:04 PM CST
Nautical Twilight 5:49 AM CST 6:34 PM CST
Astronomical Twilight 5:20 AM CST 7:04 PM CST
Moon 2:45 AM CST (2/14) 1:15 PM CST (2/14)
Length of Visible Light 11h 44m
Length of Day
10h 51m
Waning Crescent, 24% of the Moon is Illuminated
Feb 14
Waning Crescent
Feb 18
New
Feb 25
First Quarter
Mar 5
Full
Mar 13
Last Quarter

Hourly Weather History & Observations

Time (CST) Temp. Windchill Dew Point Humidity Pressure Visibility Wind Dir Wind Speed Gust Speed Precip Events Conditions
12:15 AM 26.6 °F - 8.6 °F 47% 30.20 in 10.0 mi Calm Calm - N/A   Clear
12:35 AM 28.4 °F - 8.6 °F 43% 30.19 in 10.0 mi Calm Calm - N/A   Clear
12:55 AM 26.6 °F - 8.6 °F 47% 30.18 in 10.0 mi Calm Calm - N/A   Clear
1:15 AM 26.6 °F - 8.6 °F 47% 30.18 in 10.0 mi Calm Calm - N/A   Clear
1:35 AM 26.6 °F - 8.6 °F 47% 30.18 in 10.0 mi Calm Calm - N/A   Clear
1:55 AM 26.6 °F - 8.6 °F 47% 30.18 in 10.0 mi Calm Calm - N/A   Clear
2:15 AM 28.4 °F 24.6 °F 8.6 °F 43% 30.17 in 10.0 mi WSW 3.5 mph - N/A   Clear
2:35 AM 28.4 °F 22.2 °F 8.6 °F 43% 30.17 in 10.0 mi WSW 5.8 mph - N/A   Clear
2:55 AM 28.4 °F 21.2 °F 10.4 °F 47% 30.16 in 10.0 mi WSW 6.9 mph - N/A   Clear
3:15 AM 30.2 °F 24.3 °F 10.4 °F 44% 30.15 in 10.0 mi WSW 5.8 mph - N/A   Clear
3:35 AM 30.2 °F 24.3 °F 10.4 °F 44% 30.15 in 10.0 mi West 5.8 mph - N/A   Clear
3:55 AM 30.2 °F 23.4 °F 12.2 °F 47% 30.14 in 10.0 mi SW 6.9 mph - N/A   Clear
4:15 AM 32.0 °F 24.8 °F 12.2 °F 44% 30.10 in 10.0 mi SW 8.1 mph - N/A   Clear
4:35 AM 32.0 °F 24.8 °F 12.2 °F 44% 30.13 in 10.0 mi WNW 8.1 mph - N/A   Clear
4:55 AM 30.2 °F 25.4 °F 12.2 °F 47% 30.13 in 10.0 mi West 4.6 mph - N/A   Clear
5:15 AM 30.2 °F 23.4 °F 12.2 °F 47% 30.14 in 10.0 mi West 6.9 mph - N/A   Clear
5:35 AM 30.2 °F 23.4 °F 12.2 °F 47% 30.15 in 10.0 mi West 6.9 mph - N/A   Clear
5:55 AM 28.4 °F 21.2 °F 12.2 °F 51% 30.15 in 10.0 mi West 6.9 mph - N/A   Clear
6:15 AM 28.4 °F 22.2 °F 12.2 °F 51% 30.14 in 10.0 mi West 5.8 mph - N/A   Clear
6:35 AM 28.4 °F 23.3 °F 12.2 °F 51% 30.15 in 10.0 mi West 4.6 mph - N/A   Clear
6:55 AM 28.4 °F 22.2 °F 10.4 °F 47% 30.14 in 10.0 mi WSW 5.8 mph - N/A   Clear
7:15 AM 28.4 °F 22.2 °F 12.2 °F 51% 30.14 in 10.0 mi WSW 5.8 mph - N/A   Clear
7:35 AM 30.2 °F 24.3 °F 14.0 °F 51% 30.14 in 10.0 mi WSW 5.8 mph - N/A   Clear
7:55 AM 33.8 °F 27.0 °F 15.8 °F 48% 30.13 in 10.0 mi WSW 8.1 mph - N/A   Clear
8:15 AM 35.6 °F 29.2 °F 15.8 °F 44% 30.13 in 10.0 mi WSW 8.1 mph - N/A   Clear
8:35 AM 37.4 °F 32.1 °F 15.8 °F 41% 30.14 in 10.0 mi West 6.9 mph - N/A   Clear
8:55 AM 37.4 °F 30.8 °F 17.6 °F 45% 30.13 in 10.0 mi West 9.2 mph - N/A   Clear
9:15 AM 39.2 °F 35.0 °F 19.4 °F 45% 30.13 in 10.0 mi West 5.8 mph - N/A   Clear
9:35 AM 42.8 °F 38.0 °F 19.4 °F 39% 30.15 in 10.0 mi West 8.1 mph - N/A   Clear
9:55 AM 42.8 °F 37.5 °F 19.4 °F 39% 30.15 in 10.0 mi West 9.2 mph - N/A   Clear
10:15 AM 46.4 °F 41.5 °F 21.2 °F 37% 30.15 in 10.0 mi West 10.4 mph - N/A   Scattered Clouds
10:35 AM 46.4 °F 41.9 °F 21.2 °F 37% 30.15 in 10.0 mi WSW 9.2 mph - N/A   Scattered Clouds
10:55 AM 48.2 °F - 21.2 °F 34% 30.14 in 10.0 mi West 8.1 mph - N/A   Mostly Cloudy
11:15 AM 50.0 °F - 23.0 °F 35% 30.13 in 10.0 mi West 5.8 mph - N/A   Scattered Clouds
11:35 AM 50.0 °F - 24.8 °F 37% 30.12 in 10.0 mi West 9.2 mph - N/A   Partly Cloudy
11:55 AM 51.8 °F - 24.8 °F 35% 30.11 in 10.0 mi West 6.9 mph - N/A   Clear
12:15 PM 51.8 °F - 24.8 °F 35% 30.09 in 10.0 mi SW 8.1 mph - N/A   Scattered Clouds
12:35 PM 53.6 °F - 24.8 °F 33% 30.08 in 10.0 mi SW 10.4 mph - N/A   Mostly Cloudy
12:55 PM 53.6 °F - 24.8 °F 33% 30.09 in 10.0 mi WNW 10.4 mph - N/A   Mostly Cloudy
1:15 PM 51.8 °F - 24.8 °F 35% 30.08 in 10.0 mi West 6.9 mph - N/A   Scattered Clouds
1:35 PM 53.6 °F - 24.8 °F 33% 30.07 in 10.0 mi West 11.5 mph 16.1 mph N/A   Partly Cloudy
1:55 PM 53.6 °F - 24.8 °F 33% 30.08 in 10.0 mi West 9.2 mph - N/A   Scattered Clouds
2:15 PM 53.6 °F - 24.8 °F 33% 30.09 in 10.0 mi WNW 9.2 mph - N/A   Mostly Cloudy
2:35 PM 55.4 °F - 26.6 °F 33% 30.09 in 10.0 mi North 12.7 mph 20.7 mph N/A   Scattered Clouds
2:55 PM 55.4 °F - 26.6 °F 33% 30.10 in 10.0 mi North 18.4 mph - N/A   Partly Cloudy
3:15 PM 53.6 °F - 24.8 °F 33% 30.12 in 10.0 mi North 15.0 mph 21.9 mph N/A   Scattered Clouds
3:35 PM 51.8 °F - 24.8 °F 35% 30.13 in 10.0 mi North 18.4 mph - N/A   Overcast
3:55 PM 51.8 °F - 24.8 °F 35% 30.14 in 10.0 mi North 16.1 mph 20.7 mph N/A   Overcast
4:15 PM 50.0 °F - 23.0 °F 35% 30.14 in 10.0 mi North 15.0 mph 20.7 mph N/A   Mostly Cloudy
4:35 PM 48.2 °F - 23.0 °F 37% 30.16 in 10.0 mi North 20.7 mph 24.2 mph N/A   Overcast
4:55 PM 46.4 °F 40.4 °F 21.2 °F 37% 30.17 in 10.0 mi North 13.8 mph 25.3 mph N/A   Overcast
5:15 PM 46.4 °F 39.5 °F 21.2 °F 37% 30.18 in 10.0 mi North 17.3 mph - N/A   Overcast
5:35 PM 42.8 °F 35.1 °F 21.2 °F 42% 30.20 in 10.0 mi North 16.1 mph 24.2 mph N/A   Scattered Clouds
5:55 PM 41.0 °F 32.5 °F 19.4 °F 42% 30.22 in 10.0 mi NNE 17.3 mph 25.3 mph N/A   Clear
6:15 PM 37.4 °F 27.5 °F 17.6 °F 45% 30.23 in 10.0 mi NNE 18.4 mph 21.9 mph N/A   Clear
6:35 PM 35.6 °F 24.5 °F 12.2 °F 38% 30.26 in 10.0 mi North 20.7 mph 31.1 mph N/A   Clear
6:55 PM 33.8 °F 22.5 °F 10.4 °F 38% 30.27 in 10.0 mi North 19.6 mph 25.3 mph N/A   Clear
7:15 PM 33.8 °F 22.5 °F 8.6 °F 35% 30.30 in 10.0 mi NNE 19.6 mph 28.8 mph N/A   Clear
7:35 PM 32.0 °F 21.2 °F 5.0 °F 32% 30.32 in 10.0 mi NNE 16.1 mph 20.7 mph N/A   Clear
7:55 PM 30.2 °F 19.3 °F 1.4 °F 29% 30.33 in 10.0 mi NNE 15.0 mph 23.0 mph N/A   Clear
8:15 PM 30.2 °F 18.5 °F 1.4 °F 29% 30.34 in 10.0 mi NNE 17.3 mph 20.7 mph N/A   Clear
8:35 PM 28.4 °F 15.8 °F 3.2 °F 34% 30.36 in 10.0 mi NNE 18.4 mph 24.2 mph N/A   Clear
8:55 PM 26.6 °F 11.7 °F 1.4 °F 34% 30.36 in 10.0 mi NNE 24.2 mph 31.1 mph N/A   Clear
9:15 PM 26.6 °F 13.1 °F -0.4 °F 31% 30.37 in 10.0 mi NNE 19.6 mph 32.2 mph N/A   Clear
9:35 PM 24.8 °F 9.3 °F -0.4 °F 34% 30.38 in 10.0 mi NNE 24.2 mph 33.4 mph N/A   Clear
9:55 PM 24.8 °F 9.6 °F -2.2 °F 31% 30.39 in 10.0 mi NNE 23.0 mph 31.1 mph N/A   Clear
10:15 PM 24.8 °F 11.9 °F -2.2 °F 31% 30.41 in 10.0 mi NNE 16.1 mph 26.5 mph N/A   Clear
10:35 PM 23.0 °F 8.3 °F -2.2 °F 33% 30.41 in 10.0 mi NNE 19.6 mph 28.8 mph N/A   Clear
10:55 PM 21.2 °F 4.9 °F -2.2 °F 36% 30.41 in 10.0 mi NNE 23.0 mph 29.9 mph N/A   Clear
11:15 PM 21.2 °F 6.0 °F -2.2 °F 36% 30.43 in 10.0 mi NNE 19.6 mph 24.2 mph N/A   Clear
11:35 PM 21.2 °F 6.4 °F -2.2 °F 36% 30.43 in 10.0 mi NE 18.4 mph 26.5 mph N/A   Clear
11:55 PM 21.2 °F 4.9 °F -5.8 °F 30% 30.43 in 10.0 mi NNE 23.0 mph 29.9 mph N/A   Clear